[Date Prev][Date Next][Thread Prev][Thread Next] - [Date Index][Thread Index][Author Index]

2 Line ISS Keps 12-20



ISS
1 25544U 98067A   04355.00384259  .00021666  00000-0  16947-3 0  4028
2 25544  51.6386  97.2129 0004269 119.9428 225.0853 15.71549363347504
----
Via the sarex mailing list at AMSAT.ORG courtesy of AMSAT-NA.
To unsubscribe, send "unsubscribe sarex" to Majordomo@amsat.org



AMSAT Top AMSAT Home